When you browse on this site, cookies collect data to enhance your experience and personalize the content and advertising you see.
Visit our Privacy Policy to learn more. By continuing to use the site, you agree to this use of cookies and data.
EN

Hourly Weather Godzisz

Today, 21 September, Monday

Time Temperature Precipitation Wind Pressure Humidity
00:00 +12°C° 0 mm 2 mps 754 mmHg 72%
01:00 +10°C° 0 mm 2 mps 755 mmHg 73%
02:00 +10°C° 0 mm 2 mps 754 mmHg 75%
03:00 +10°C° 0 mm 2 mps 754 mmHg 76%
04:00 +10°C° 0 mm 2 mps 754 mmHg 77%
05:00 +12°C° 0 mm 2 mps 754 mmHg 74%
06:00 +12°C° 0 mm 2 mps 754 mmHg 70%
07:00 +13°C° 0 mm 2 mps 754 mmHg 67%
08:00 +15°C° 0 mm 2 mps 754 mmHg 60%
09:00 +18°C° 0 mm 2 mps 754 mmHg 54%
10:00 +20°C° 0 mm 3 mps 754 mmHg 47%
11:00 +21°C° 0 mm 3 mps 754 mmHg 44%
12:00 +22°C° 0 mm 3 mps 754 mmHg 42%
13:00 +24°C° 0 mm 3 mps 754 mmHg 40%
14:00 +24°C° 0 mm 2 mps 753 mmHg 42%
15:00 +24°C° 0 mm 2 mps 753 mmHg 44%
16:00 +24°C° 0 mm 1 mps 753 mmHg 46%
17:00 +22°C° 0 mm 1 mps 753 mmHg 50%
18:00 +19°C° 0 mm 2 mps 752 mmHg 55%
19:00 +17°C° 0 mm 2 mps 752 mmHg 59%
20:00 +16°C° 0 mm 1 mps 752 mmHg 62%
21:00 +16°C° 0 mm 1 mps 752 mmHg 64%
22:00 +15°C° 0 mm 1 mps 752 mmHg 66%
23:00 +15°C° 0 mm 1 mps 752 mmHg 67%

Tomorrow, 22 September, Tuesday

Time Temperature Precipitation Wind Pressure Humidity
00:00 +14°C° 0 mm 2 mps 752 mmHg 68%
01:00 +14°C° 0 mm 2 mps 752 mmHg 68%
02:00 +14°C° 0 mm 2 mps 752 mmHg 70%
03:00 +13°C° 0 mm 2 mps 752 mmHg 71%
04:00 +13°C° 0 mm 2 mps 751 mmHg 72%
05:00 +14°C° 0 mm 2 mps 751 mmHg 70%
06:00 +15°C° 0 mm 2 mps 752 mmHg 68%
07:00 +16°C° 0 mm 2 mps 752 mmHg 66%
08:00 +18°C° 0 mm 2 mps 752 mmHg 59%
09:00 +20°C° 0 mm 2 mps 751 mmHg 52%
10:00 +23°C° 0 mm 2 mps 751 mmHg 45%
11:00 +25°C° 0 mm 2 mps 751 mmHg 42%
12:00 +26°C° 0 mm 2 mps 751 mmHg 38%
13:00 +27°C° 0 mm 2 mps 750 mmHg 35%
14:00 +26°C° 0 mm 2 mps 750 mmHg 38%
15:00 +26°C° 0 mm 2 mps 750 mmHg 40%
16:00 +25°C° 0 mm 2 mps 749 mmHg 43%
17:00 +23°C° 0 mm 2 mps 749 mmHg 47%
18:00 +21°C° 0 mm 2 mps 749 mmHg 51%
19:00 +19°C° 0 mm 2 mps 749 mmHg 54%
20:00 +18°C° 0 mm 3 mps 748 mmHg 57%
21:00 +17°C° 0 mm 3 mps 748 mmHg 60%
22:00 +16°C° 0 mm 3 mps 748 mmHg 63%
23:00 +16°C° 0 mm 3 mps 748 mmHg 64%

Day after tomorrow, 23 September, Wednesday

Time Temperature Precipitation Wind Pressure Humidity
00:00 +16°C° 0 mm 3 mps 748 mmHg 65%
01:00 +14°C° 0 mm 3 mps 747 mmHg 67%
02:00 +14°C° 0 mm 3 mps 747 mmHg 67%
03:00 +13°C° 0 mm 3 mps 747 mmHg 67%
04:00 +13°C° 0 mm 3 mps 747 mmHg 67%
05:00 +14°C° 0 mm 3 mps 746 mmHg 66%
06:00 +14°C° 0 mm 3 mps 746 mmHg 64%
07:00 +16°C° 0 mm 3 mps 746 mmHg 63%
08:00 +19°C° 0 mm 3 mps 746 mmHg 56%
09:00 +22°C° 0 mm 3 mps 746 mmHg 49%
10:00 +25°C° 0 mm 3 mps 746 mmHg 42%
11:00 +27°C° 0 mm 3 mps 746 mmHg 39%
12:00 +28°C° 0 mm 3 mps 745 mmHg 36%
13:00 +29°C° 0 mm 3 mps 745 mmHg 33%
14:00 +28°C° 0 mm 3 mps 745 mmHg 37%
15:00 +28°C° 0 mm 3 mps 745 mmHg 41%
16:00 +27°C° 0 mm 2 mps 744 mmHg 44%
17:00 +25°C° 0 mm 3 mps 744 mmHg 48%
18:00 +22°C° 0 mm 3 mps 744 mmHg 52%
19:00 +20°C° 0 mm 3 mps 745 mmHg 56%
20:00 +19°C° 0 mm 3 mps 745 mmHg 58%
21:00 +19°C° 0 mm 3 mps 745 mmHg 60%
22:00 +18°C° 0 mm 3 mps 745 mmHg 61%
23:00 +17°C° 0 mm 3 mps 745 mmHg 63%

24 September, Thursday

Time Temperature Precipitation Wind Pressure Humidity
00:00 +17°C° 0 mm 2 mps 745 mmHg 65%
01:00 +16°C° 0 mm 2 mps 745 mmHg 66%
02:00 +16°C° 0 mm 2 mps 745 mmHg 67%
03:00 +16°C° 0 mm 2 mps 745 mmHg 68%
04:00 +15°C° 0 mm 2 mps 744 mmHg 70%
05:00 +16°C° 0 mm 2 mps 745 mmHg 68%
06:00 +17°C° 0 mm 2 mps 745 mmHg 66%
07:00 +17°C° 0 mm 2 mps 745 mmHg 65%
08:00 +19°C° 0 mm 2 mps 745 mmHg 61%
09:00 +21°C° 0 mm 2 mps 745 mmHg 56%
10:00 +24°C° 0 mm 2 mps 745 mmHg 52%
11:00 +25°C° 0 mm 2 mps 745 mmHg 50%
12:00 +26°C° 0 mm 2 mps 745 mmHg 48%
13:00 +27°C° 0 mm 2 mps 746 mmHg 46%
14:00 +27°C° 0.4 mm 3 mps 745 mmHg 50%
15:00 +26°C° 0.4 mm 3 mps 745 mmHg 54%
16:00 +25°C° 0.4 mm 3 mps 745 mmHg 59%
17:00 +24°C° 0.4 mm 2 mps 745 mmHg 65%
18:00 +21°C° 0.4 mm 2 mps 745 mmHg 71%
19:00 +20°C° 0.4 mm 2 mps 745 mmHg 77%
20:00 +19°C° 0 mm 2 mps 746 mmHg 78%
21:00 +19°C° 0 mm 2 mps 746 mmHg 79%
22:00 +19°C° 0 mm 1 mps 746 mmHg 80%
23:00 +19°C° 0 mm 1 mps 746 mmHg 82%

25 September, Friday

Time Temperature Precipitation Wind Pressure Humidity
00:00 +18°C° 0 mm 1 mps 746 mmHg 83%
01:00 +18°C° 0 mm 1 mps 745 mmHg 84%
02:00 +17°C° 0 mm 2 mps 745 mmHg 86%
03:00 +16°C° 0 mm 2 mps 745 mmHg 87%
04:00 +16°C° 0 mm 2 mps 744 mmHg 88%
05:00 +17°C° 0 mm 3 mps 744 mmHg 86%
06:00 +17°C° 0 mm 4 mps 744 mmHg 83%
07:00 +17°C° 0 mm 5 mps 744 mmHg 81%
08:00 +20°C° 0 mm 6 mps 743 mmHg 73%
09:00 +22°C° 0 mm 7 mps 743 mmHg 66%
10:00 +23°C° 0 mm 8 mps 743 mmHg 58%
11:00 +24°C° 0 mm 8 mps 742 mmHg 55%
12:00 +26°C° 0 mm 8 mps 742 mmHg 52%
13:00 +27°C° 0 mm 9 mps 741 mmHg 49%
14:00 +26°C° 0 mm 8 mps 741 mmHg 51%
15:00 +26°C° 0 mm 7 mps 741 mmHg 52%
16:00 +26°C° 0 mm 6 mps 740 mmHg 54%
17:00 +23°C° 0.3 mm 6 mps 740 mmHg 62%
18:00 +21°C° 0.3 mm 6 mps 740 mmHg 71%
19:00 +20°C° 0.3 mm 6 mps 740 mmHg 79%
20:00 +20°C° 0.4 mm 6 mps 739 mmHg 80%
21:00 +20°C° 0.4 mm 6 mps 739 mmHg 81%
22:00 +20°C° 0.4 mm 6 mps 739 mmHg 81%
23:00 +20°C° 0.3 mm 7 mps 738 mmHg 80%

26 September, Saturday

Time Temperature Precipitation Wind Pressure Humidity
00:00 +20°C° 0.3 mm 7 mps 738 mmHg 78%
01:00 +20°C° 0.3 mm 7 mps 738 mmHg 77%
02:00 +19°C° 0 mm 6 mps 738 mmHg 76%
03:00 +19°C° 0 mm 6 mps 738 mmHg 76%
04:00 +19°C° 0 mm 6 mps 738 mmHg 76%
05:00 +17°C° 0 mm 5 mps 739 mmHg 78%
06:00 +16°C° 0 mm 5 mps 739 mmHg 81%
07:00 +14°C° 0 mm 4 mps 740 mmHg 84%
08:00 +15°C° 0 mm 4 mps 741 mmHg 80%
09:00 +17°C° 0 mm 3 mps 741 mmHg 76%
10:00 +17°C° 0 mm 2 mps 742 mmHg 72%
11:00 +18°C° 0 mm 2 mps 742 mmHg 70%
12:00 +19°C° 0 mm 2 mps 742 mmHg 67%
13:00 +19°C° 0 mm 2 mps 742 mmHg 65%
14:00 +19°C° 0 mm 2 mps 742 mmHg 66%
15:00 +19°C° 0 mm 3 mps 742 mmHg 67%
16:00 +19°C° 0 mm 3 mps 742 mmHg 69%
17:00 +19°C° 0.3 mm 3 mps 741 mmHg 74%
18:00 +18°C° 0.3 mm 4 mps 741 mmHg 79%
19:00 +18°C° 0.3 mm 4 mps 741 mmHg 84%
20:00 +17°C° 1.5 mm 5 mps 740 mmHg 87%
21:00 +17°C° 1.5 mm 5 mps 740 mmHg 89%
22:00 +17°C° 1.5 mm 5 mps 739 mmHg 91%
23:00 +17°C° 0.2 mm 5 mps 739 mmHg 91%
Show more